Terminal Aerodrome Forecast
Issued by NWS Charleston, WV

Current Version | Previous Version | Text Only | Print | Product List | Glossary Off
Versions: 1 2 3 4 5 6 7 8 9 10 11 12 13 14 15 16 17 18 19 20 21 22

000
FTUS41 KRLX 160300 AAA
TAFPKB
TAF AMD
KPKB 160308Z 1603/1624 07008KT P6SM BKN250
     FM161200 12008KT P6SM OVC045
     FM161600 15008G15KT P6SM -SHRA OVC060
     FM162000 16006G15KT P6SM OVC045=

USA.gov is the U.S. government's official web portal to all federal, state and local government web resources and services.